This demonstration page uses our WeatherBlox Daily Observations layout. Learn more.

Left ArrowRight Arrow

34.74481, -87.66753

Hourly Observations for June 8, 2019

Temp ( °F °C ) Dew Point ( °F °C ) Humidity (%) Winds ( mph kmh ) Pressure ( in mb ) Visibility ( mi km ) Precip ( " mm )
12:53 am 00:53 Mostly Cloudy 71 21.7 69 20.6 94 94 Calm 29.69 1005 10 16 0.00 0.00
1:24 am 01:24 Cloudy 71 21.7 69 20.6 94 94 Calm 29.69 1006 10 16 0.00 0.00
1:36 am 01:36 Cloudy 71 21.7 69 20.6 94 94 Calm 29.69 1006 10 16 0.00 0.00
1:53 am 01:53 Cloudy 71 21.7 69 20.6 94 94 Calm 29.68 1005 10 16 0.00 0.00
2:24 am 02:24 Partly Cloudy 71 21.7 68 20 90 90 SE 3 6 29.68 1005 10 16 0.00 0.00
2:53 am 02:53 Clear 70 21.1 68 20 93 93 Calm 29.68 1005 10 16 0.00 0.00
3:44 am 03:44 Mostly Clear 70 21.1 68 20 93 93 SSE 5 7 29.70 1006 10 16 0.00 0.00
3:53 am 03:53 Partly Cloudy 70 21.1 68 20 93 93 SSE 6 9 29.69 1005 10 16 0.00 0.00
4:00 am 04:00 Mostly Cloudy 70 21.1 68 20 93 93 SSE 3 6 29.71 1006 10 16 0.00 0.00
4:53 am 04:53 Cloudy 70 21.1 69 20.6 97 97 Calm 29.70 1006 10 16 0.00 0.00
5:53 am 05:53 Cloudy 71 21.7 69 20.6 94 94 Calm 29.70 1006 10 16 0.00 0.00
6:53 am 06:53 Cloudy 71 21.7 69 20.6 94 94 Calm 29.72 1006 10 16 0.00 0.00
7:53 am 07:53 Cloudy 72 22.2 70 21.1 94 94 Calm 29.73 1007 10 16 0.00 0.00
8:18 am 08:18 Cloudy 74 23.3 70 21.1 88 88 Calm 29.73 1007 10 16 0.00 0.00
8:42 am 08:42 Cloudy 74 23.3 70 21.1 88 88 Calm 29.74 1007 10 16 0.00 0.00
8:53 am 08:53 Cloudy 75 23.9 70 21.1 84 84 Calm 29.74 1007 10 16 0.00 0.00
9:29 am 09:29 Cloudy 76 24.4 69 20.6 79 79 Calm 29.73 1007 10 16 0.00 0.00
9:53 am 09:53 Mostly Cloudy 77 25 69 20.6 77 77 SE 3 6 29.73 1007 10 16 0.00 0.00
10:00 am 10:00 Cloudy 77 25 69 20.6 77 77 E 5 7 29.73 1007 10 16 0.00 0.00
10:14 am 10:14 Cloudy 77 25 69 20.6 77 77 Calm 29.73 1007 10 16 0.00 0.00
10:39 am 10:39 Mostly Cloudy 79 26.1 70 21.1 74 74 SE 3 6 29.73 1007 10 16 0.00 0.00
10:53 am 10:53 Mostly Cloudy 79 26.1 69 20.6 72 72 ESE 3 6 29.73 1007 10 16 0.00 0.00
11:02 am 11:02 Mostly Cloudy 80 26.7 70 21.1 71 71 SSE 3 6 29.73 1007 10 16 0.00 0.00
11:53 am 11:53 Cloudy 82 27.8 70 21.1 67 67 ESE 6 9 29.72 1007 10 16 0.00 0.00
12:13 pm 12:13 Mostly Cloudy 82 27.8 69 20.6 65 65 Calm 29.72 1007 10 16 0.00 0.00
12:42 pm 12:42 Mostly Cloudy 82 27.8 69 20.6 65 65 VRB 3 6 29.71 1006 10 16 0.00 0.00
12:53 pm 12:53 Cloudy 83 28.3 69 20.6 63 63 Calm 29.71 1006 10 16 0.00 0.00
1:08 pm 13:08 Cloudy 83 28.3 68 20 61 61 Calm 29.71 1006 10 16 0.00 0.00
1:53 pm 13:53 Mostly Cloudy 83 28.3 69 20.6 63 63 N 7 11 29.71 1006 10 16 0.00 0.00
2:05 pm 14:05 Cloudy with Rain 79 26.1 70 21.1 74 74 NNE 8 13 29.71 1006 10 16 0.01 0.25
2:53 pm 14:53 Cloudy 78 25.6 72 22.2 82 82 SE 6 9 29.71 1006 10 16 0.04 1.02
3:53 pm 15:53 Mostly Cloudy 80 26.7 72 22.2 76 76 S 3 6 29.70 1006 10 16 0.00 0.00
4:53 pm 16:53 Partly Cloudy 81 27.2 69 20.6 67 67 S 7 11 29.71 1006 10 16 0.00 0.00
5:53 pm 17:53 Cloudy 79 26.1 70 21.1 74 74 S 5 7 29.71 1006 10 16 0.00 0.00
6:53 pm 18:53 Mostly Cloudy 80 26.7 71 21.7 74 74 WSW 5 7 29.72 1006 10 16 0.00 0.00
7:53 pm 19:53 Cloudy 79 26.1 71 21.7 77 77 S 3 6 29.73 1007 10 16 0.00 0.00
8:53 pm 20:53 Partly Cloudy 77 25 73 22.8 88 88 SSE 3 6 29.73 1007 10 16 0.00 0.00
9:53 pm 21:53 Clear 75 23.9 71 21.7 88 88 S 5 7 29.75 1007 10 16 0.00 0.00
10:53 pm 22:53 Clear 74 23.3 71 21.7 91 91 Calm 29.76 1008 10 16 0.00 0.00
11:53 pm 23:53 Clear 73 22.8 71 21.7 94 94 Calm 29.77 1008 10 16 0.00 0.00

Powered by AerisWeather